FW1036 Weather Reports


Display with metric or nautical units.
time (UTC)temp
F
wind
direction
speed
MPH
gust
MPH
rain 1hr
in
rain 24hr
in
rain mn
in
humidity
%
barometer
mb
20260509164559 62 128 9.0 23.0 0.00 0.00 0.00 67 999.7
20260509163058 62 173 10.0 19.0 0.00 0.00 0.00 66 999.7
20260509161602 60 205 7.0 23.0 0.00 0.00 0.00 70 999.8
20260509160051 59 164 9.0 21.0 0.00 0.00 0.00 72 999.7
20260509154553 58 185 9.0 21.0 0.00 0.00 0.00 67 1000.0
20260509153101 58 189 6.0 15.0 0.00 0.00 0.00 64 1000.3
20260509151557 58 173 6.0 13.0 0.00 0.00 0.00 67 1000.5
20260509150045 58 192 10.0 23.0 0.00 0.00 0.00 68 1000.6
20260509144541 58 165 7.0 20.0 0.00 0.00 0.00 73 1000.9
20260509143041 56 173 6.0 16.0 0.00 0.00 0.00 76 1001.3
20260509141543 55 223 7.0 15.0 0.00 0.00 0.00 78 1001.6
20260509140033 55 225 6.0 18.0 0.00 0.00 0.00 77 1001.7
20260509134534 55 223 6.0 12.0 0.00 0.00 0.00 76 1002.4
20260509133044 55 229 3.0 14.0 0.00 0.00 0.00 75 1002.0
20260509131533 56 185 5.0 10.0 0.00 0.00 0.00 76 1001.8
20260509130028 54 184 4.0 8.0 0.00 0.00 0.00 79 1001.8
20260509124525 52 182 4.0 10.0 0.00 0.00 0.00 79 1002.0
20260509123023 52 201 4.0 11.0 0.00 0.00 0.00 80 1002.1
20260509121520 49 171 5.0 11.0 0.00 0.00 0.00 80 1002.2
20260509120115 49 161 4.0 12.0 0.00 0.00 0.00 80 1002.5
20260509114513 49 174 5.0 14.0 0.00 0.00 0.00 79 1002.6
20260509113011 47 188 3.0 8.0 0.00 0.00 0.00 78 1002.8
20260509111513 46 224 2.0 6.0 0.00 0.00 0.00 75 1003.0
20260509110004 45 209 2.0 6.0 0.00 0.00 0.00 74 1003.2
20260509104502 45 188 2.0 7.0 0.00 0.00 0.00 73 1003.4
20260509103111 45 165 3.0 8.0 0.00 0.00 0.00 72 1003.1
20260509101558 44 157 1.0 5.0 0.00 0.00 0.00 75 1003.5
20260509100055 43 213 0.0 3.0 0.00 0.00 0.00 79 1003.6
20260509094555 43 213 1.0 3.0 0.00 0.00 0.00 79 1003.7
20260509093050 44 233 2.0 4.0 0.00 0.00 0.00 78 1003.8
20260509091548 44 211 1.0 4.0 0.00 0.00 0.00 77 1003.8
20260509090054 45 200 1.0 4.0 0.00 0.00 0.00 79 1003.7
20260509084545 44 167 2.0 5.0 0.00 0.00 0.00 82 1003.8
20260509083042 44 213 1.0 5.0 0.00 0.00 0.00 85 1003.9
20260509081550 45 198 2.0 4.0 0.00 0.00 0.00 86 1003.9
20260509080039 45 198 2.0 7.0 0.00 0.00 0.00 88 1004.2
20260509074636 45 192 2.0 5.0 0.00 0.00 0.00 89 1004.2
20260509073044 45 234 2.0 6.0 0.00 0.00 0.00 89 1004.2
20260509071545 45 173 2.0 5.0 0.00 0.00 0.00 89 1004.4
20260509070041 46 169 3.0 6.0 0.00 0.00 0.00 90 1004.4
20260509064532 46 178 3.0 8.0 0.00 0.00 0.00 89 1004.6
20260509063053 46 173 4.0 7.0 0.00 0.00 0.00 89 1004.7
20260509061541 46 166 3.0 8.0 0.00 0.00 0.00 89 1004.9
20260509060033 47 201 3.0 6.0 0.00 0.00 0.00 89 1005.2
20260509054521 47 176 3.0 8.0 0.00 0.00 0.00 88 1005.4
20260509053022 47 157 5.0 9.0 0.00 0.00 0.00 88 1005.6
20260509051519 47 179 5.0 8.0 0.00 0.00 0.00 88 1005.7
20260509050018 46 165 4.0 7.0 0.00 0.00 0.00 88 1005.7
20260509044518 46 154 3.0 6.0 0.00 0.00 0.00 87 1005.8
20260509043013 46 138 3.0 7.0 0.00 0.00 0.00 84 1005.9
20260509041510 47 132 2.0 7.0 0.00 0.00 0.00 83 1005.9
20260509040006 48 178 4.0 9.0 0.00 0.00 0.00 82 1006.0
20260509034505 48 162 4.0 8.0 0.00 0.00 0.00 79 1006.0
20260509033004 48 167 6.0 9.0 0.00 0.00 0.00 75 1006.0
20260509031503 48 174 4.0 7.0 0.00 0.00 0.00 72 1006.3
20260509030002 49 172 5.0 7.0 0.00 0.00 0.00 70 1006.5
20260509024500 47 159 3.0 5.0 0.00 0.00 0.00 67 1006.5
20260509023107 47 170 2.0 4.0 0.00 0.00 0.00 67 1006.6
20260509021600 47 145 3.0 5.0 0.00 0.00 0.00 66 1006.7
20260509014559 49 138 2.0 6.0 0.00 0.00 0.00 62 1006.7
20260509013100 49 120 4.0 7.0 0.00 0.00 0.00 60 1006.6
20260509011558 50 137 2.0 5.0 0.00 0.00 0.00 58 1006.6
20260509010056 50 128 4.0 7.0 0.00 0.00 0.00 56 1006.6
20260509004606 51 146 4.0 9.0 0.00 0.00 0.00 52 1006.4
20260509003056 52 132 5.0 8.0 0.00 0.00 0.00 51 1006.4
20260509001555 54 102 5.0 7.0 0.00 0.00 0.00 49 1006.4
20260509000055 57 157 0.0 3.0 0.00 0.00 0.00 43 1006.2
20260508234555 58 227 2.0 7.0 0.00 0.00 0.00 38 1006.3
20260508233053 59 257 2.0 10.0 0.00 0.00 0.00 35 1006.4
20260508231552 60 223 5.0 10.0 0.00 0.00 0.00 34 1006.4
20260508230052 61 237 3.0 7.0 0.00 0.00 0.00 34 1006.4
20260508224552 61 222 6.0 15.0 0.00 0.00 0.00 34 1006.5
20260508223050 61 253 4.0 10.0 0.00 0.00 0.00 34 1006.6
20260508221556 62 229 3.0 9.0 0.00 0.00 0.00 33 1006.5
20260508220048 61 246 3.0 9.0 0.00 0.00 0.00 33 1006.6
20260508214547 62 237 4.0 12.0 0.00 0.00 0.00 33 1006.5
20260508213045 62 204 5.0 14.0 0.00 0.00 0.00 33 1006.6
20260508211544 61 244 5.0 10.0 0.00 0.00 0.00 32 1006.6
20260508210043 62 259 5.0 10.0 0.00 0.00 0.00 33 1006.9
20260508204541 62 229 5.0 11.0 0.00 0.00 0.00 32 1007.0
20260508203042 62 234 2.0 8.0 0.00 0.00 0.00 35 1007.1
20260508201546 62 237 7.0 11.0 0.00 0.00 0.00 33 1007.3
20260508200036 62 167 5.0 13.0 0.00 0.00 0.00 33 1007.5
20260508194533 60 302 2.0 11.0 0.00 0.00 0.00 35 1007.8
20260508193031 60 208 5.0 14.0 0.00 0.00 0.00 33 1008.1
20260508191535 60 221 3.0 13.0 0.00 0.00 0.00 40 1008.3
20260508190034 59 207 3.0 9.0 0.00 0.00 0.00 36 1008.4
20260508184528 59 216 2.0 12.0 0.00 0.00 0.00 36 1008.6
20260508183023 59 240 6.0 10.0 0.00 0.00 0.00 38 1008.9
20260508181531 60 221 7.0 12.0 0.00 0.00 0.00 38 1009.0
20260508180019 58 258 5.0 12.0 0.00 0.00 0.00 39 1009.1
20260508174517 59 208 6.0 11.0 0.00 0.00 0.00 41 1009.4
20260508173018 59 247 6.0 11.0 0.00 0.00 0.00 35 1009.7
20260508171521 58 271 6.0 13.0 0.00 0.00 0.00 42 1009.9
20260508170012 57 190 3.0 16.0 0.00 0.00 0.00 41 1010.2